Atmospheric History
12/06/2017 18:34  to  12/7/2017 18:34
Change End Date:
To complete the export process:
1) Select all of the data below
2) Copy the data to the clipboard
3) Open a word processor such as Notepad
4) Paste the data into the word processor
5) Save the file

Date/Time (MDT), AirTemp, RH, Dewpoint ,AvgWindSpeed, GustWindSpeed, WindDirection, PrecipType, PrecipIntensity, PrecipAccumulation, PrecipRate ,Visibility
12/07/2017 18:28, 35, 36, 11 ,14, 19, W, None, None, ,   ,
12/07/2017 18:27, 35, 37, 11 ,12, 19, W, None, None, ,   ,
12/07/2017 18:18, 36, 36, 11 ,14, 20, W, None, None, ,   ,
12/07/2017 18:12, 34, 38, 11 ,12, 14, W, None, None, ,   ,
12/07/2017 18:08, 33, 38, 11 ,12, 17, W, None, None, ,   ,
12/07/2017 17:58, 34, 38, 11 ,13, 21, W, None, None, ,   ,
12/07/2017 17:57, 34, 38, 11 ,12, 21, SW, None, None, ,   ,
12/07/2017 17:48, 33, 38, 11 ,15, 23, SW, None, None, ,   ,
12/07/2017 17:42, 32, 39, 10 ,15, 20, W, None, None, ,   ,
12/07/2017 17:38, 33, 39, 10 ,14, 18, SW, None, None, ,   ,
12/07/2017 17:28, 34, 37, 11 ,14, 21, SW, None, None, ,   ,
12/07/2017 17:27, 34, 37, 11 ,16, 21, W, None, None, ,   ,
12/07/2017 17:18, 33, 38, 10 ,17, 22, W, None, None, ,   ,
12/07/2017 17:11, 32, 39, 10 ,17, 21, SW, None, None, ,   ,
12/07/2017 17:08, 32, 38, 10 ,17, 21, W, None, None, ,   ,
12/07/2017 16:58, 32, 39, 10 ,18, 21, SW, None, None, ,   ,
12/07/2017 16:57, 32, 39, 10 ,18, 21, SW, None, None, ,   ,
12/07/2017 16:48, 33, 38, 10 ,16, 19, SW, None, None, ,   ,
12/07/2017 16:41, 32, 39, 10 ,15, 19, SW, None, None, ,   ,
12/07/2017 16:38, 32, 39, 10 ,12, 19, SW, None, None, ,   ,
12/07/2017 16:28, 31, 40, 10 ,15, 20, SW, None, None, ,   ,
12/07/2017 16:27, 31, 40, 10 ,16, 20, SW, None, None, ,   ,
12/07/2017 16:17, 32, 39, 10 ,16, 20, SW, None, None, ,   ,
12/07/2017 16:11, 32, 39, 10 ,17, 21, SW, None, None, ,   ,
12/07/2017 16:07, 33, 39, 10 ,15, 21, SW, None, None, ,   ,
12/07/2017 15:57, 32, 40, 10 ,12, 16, SW, None, None, ,   ,
12/07/2017 15:56, 32, 40, 11 ,12, 16, SW, None, None, ,   ,
12/07/2017 15:47, 32, 40, 11 ,14, 16, SW, None, None, ,   ,
12/07/2017 15:41, 32, 40, 11 ,11, 17, SW, None, None, ,   ,
12/07/2017 15:37, 32, 40, 10 ,14, 17, SW, None, None, ,   ,
12/07/2017 15:27, 33, 38, 10 ,16, 19, SW, None, None, ,   ,
12/07/2017 15:26, 33, 38, 10 ,16, 19, SW, None, None, ,   ,
12/07/2017 15:17, 33, 38, 11 ,14, 19, SW, None, None, ,   ,
12/07/2017 15:11, 34, 38, 11 ,13, 17, W, None, None, ,   ,
12/07/2017 15:07, 32, 40, 11 ,14, 19, NW, None, None, ,   ,
12/07/2017 14:57, 32, 40, 11 ,14, 18, W, None, None, ,   ,
12/07/2017 14:56, 32, 40, 11 ,16, 18, W, None, None, ,   ,
12/07/2017 14:47, 32, 41, 11 ,13, 17, W, None, None, ,   ,
12/07/2017 14:41, 32, 41, 11 ,12, 15, W, None, None, ,   ,
12/07/2017 14:37, 32, 42, 12 ,12, 16, SW, None, None, ,   ,
12/07/2017 14:27, 31, 42, 11 ,14, 17, W, None, None, ,   ,
12/07/2017 14:26, 31, 41, 11 ,13, 16, SW, None, None, ,   ,
12/07/2017 14:17, 31, 41, 11 ,12, 16, W, None, None, ,   ,
12/07/2017 14:11, 31, 41, 11 ,11, 16, SW, None, None, ,   ,
12/07/2017 14:07, 31, 41, 11 ,11, 17, SW, None, None, ,   ,
12/07/2017 13:57, 32, 42, 11 ,11, 14, SW, None, None, ,   ,
12/07/2017 13:56, 31, 42, 11 ,11, 14, SW, None, None, ,   ,
12/07/2017 13:47, 31, 42, 11 ,9, 14, W, None, None, ,   ,
12/07/2017 13:41, 31, 42, 11 ,11, 14, W, None, None, ,   ,
12/07/2017 13:37, 31, 42, 11 ,12, 14, W, None, None, ,   ,
12/07/2017 13:27, 31, 42, 11 ,11, 14, W, None, None, ,   ,
12/07/2017 13:26, 31, 42, 11 ,11, 14, W, None, None, ,   ,
12/07/2017 13:16, 31, 43, 12 ,11, 14, NW, None, None, ,   ,
12/07/2017 13:11, 30, 46, 12 ,12, 14, W, None, None, ,   ,
12/07/2017 13:06, 29, 46, 11 ,11, 13, W, None, None, ,   ,
12/07/2017 12:57, 30, 44, 11 ,10, 12, W, None, None, ,   ,
12/07/2017 12:56, 30, 43, 11 ,9, 12, W, None, None, ,   ,
12/07/2017 12:46, 30, 43, 10 ,9, 14, W, None, None, ,   ,
12/07/2017 12:42, 30, 43, 11 ,12, 14, W, None, None, ,   ,
12/07/2017 12:36, 30, 44, 11 ,11, 11, W, None, None, ,   ,
12/07/2017 12:27, 29, 46, 12 ,10, 12, W, None, None, ,   ,
12/07/2017 12:26, 29, 46, 12 ,10, 12, W, None, None, ,   ,
12/07/2017 12:16, 29, 46, 11 ,9, 11, W, None, None, ,   ,
12/07/2017 12:12, 29, 46, 11 ,8, 11, W, None, None, ,   ,
12/07/2017 12:06, 29, 45, 11 ,9, 13, W, None, None, ,   ,
12/07/2017 11:57, 29, 45, 11 ,12, 14, W, None, None, ,   ,
12/07/2017 11:56, 29, 44, 11 ,12, 15, W, None, None, ,   ,
12/07/2017 11:46, 29, 44, 10 ,12, 14, W, None, None, ,   ,
12/07/2017 11:42, 29, 45, 10 ,9, 12, W, None, None, ,   ,
12/07/2017 11:36, 29, 43, 10 ,10, 14, W, None, None, ,   ,
12/07/2017 11:27, 29, 43, 10 ,12, 16, W, None, None, ,   ,
12/07/2017 11:26, 29, 43, 10 ,12, 16, W, None, None, ,   ,
12/07/2017 11:16, 29, 44, 10 ,11, 16, W, None, None, ,   ,
12/07/2017 11:12, 29, 44, 10 ,11, 16, W, None, None, ,   ,
12/07/2017 11:06, 29, 44, 10 ,11, 14, W, None, None, ,   ,
12/07/2017 10:56, 29, 42, 10 ,12, 16, W, None, None, ,   ,
12/07/2017 10:56, 29, 42, 10 ,12, 16, W, None, None, ,   ,
12/07/2017 10:46, 29, 45, 10 ,14, 19, NW, None, None, ,   ,
12/07/2017 10:42, 28, 45, 10 ,14, 19, NW, None, None, ,   ,
12/07/2017 10:36, 28, 45, 10 ,15, 18, NW, None, None, ,   ,
12/07/2017 10:27, 28, 46, 10 ,12, 16, W, None, None, ,   ,
12/07/2017 10:26, 28, 46, 10 ,12, 16, W, None, None, ,   ,
12/07/2017 10:16, 27, 48, 10 ,11, 14, W, None, None, ,   ,
12/07/2017 10:12, 27, 47, 10 ,12, 14, W, None, None, ,   ,
12/07/2017 10:06, 27, 47, 10 ,12, 14, W, None, None, ,   ,
12/07/2017 09:57, 26, 49, 10 ,12, 15, W, None, None, ,   ,
12/07/2017 09:55, 26, 49, 10 ,12, 14, W, None, None, ,   ,
12/07/2017 09:45, 27, 46, 9 ,12, 16, W, None, None, ,   ,
12/07/2017 09:42, 27, 46, 9 ,13, 17, W, None, None, ,   ,
12/07/2017 09:35, 27, 46, 9 ,14, 18, NW, None, None, ,   ,
12/07/2017 09:26, 27, 46, 9 ,14, 21, W, None, None, ,   ,
12/07/2017 09:25, 27, 45, 9 ,16, 21, W, None, None, ,   ,
12/07/2017 09:15, 28, 45, 9 ,16, 19, NW, None, None, ,   ,
12/07/2017 09:12, 27, 45, 9 ,14, 17, NW, None, None, ,   ,
12/07/2017 09:05, 27, 46, 9 ,11, 14, NW, None, None, ,   ,
12/07/2017 08:57, 27, 47, 9 ,12, 16, NW, None, None, ,   ,
12/07/2017 08:55, 27, 47, 10 ,13, 16, NW, None, None, ,   ,
12/07/2017 08:45, 26, 49, 10 ,10, 13, W, None, None, ,   ,
12/07/2017 08:41, 26, 49, 10 ,10, 14, W, None, None, ,   ,
12/07/2017 08:35, 26, 49, 10 ,11, 16, W, None, None, ,   ,
12/07/2017 08:27, 27, 48, 10 ,9, 14, W, None, None, ,   ,
12/07/2017 08:25, 27, 48, 10 ,11, 14, W, None, None, ,   ,
12/07/2017 08:15, 27, 48, 10 ,12, 16, W, None, None, ,   ,
12/07/2017 08:12, 27, 48, 10 ,12, 16, W, None, None, ,   ,
12/07/2017 08:05, 26, 49, 10 ,11, 14, NW, None, None, ,   ,
12/07/2017 07:57, 26, 52, 10 ,9, 13, W, None, None, ,   ,
12/07/2017 07:55, 26, 52, 10 ,9, 13, W, None, None, ,   ,
12/07/2017 07:45, 25, 54, 11 ,10, 12, NW, None, None, ,   ,
12/07/2017 07:42, 25, 55, 11 ,9, 12, W, None, None, ,   ,
12/07/2017 07:35, 24, 57, 11 ,10, 12, W, None, None, ,   ,
12/07/2017 07:26, 24, 56, 11 ,9, 13, W, None, None, ,   ,
12/07/2017 07:25, 24, 57, 11 ,9, 13, SW, None, None, ,   ,
12/07/2017 07:15, 24, 58, 11 ,9, 11, W, None, None, ,   ,
12/07/2017 07:12, 24, 58, 11 ,9, 11, W, None, None, ,   ,
12/07/2017 07:05, 23, 58, 11 ,8, 10, W, None, None, ,   ,
12/07/2017 06:57, 24, 55, 11 ,9, 11, SW, None, None, ,   ,
12/07/2017 06:55, 25, 55, 11 ,8, 12, W, None, None, ,   ,
12/07/2017 06:44, 24, 56, 11 ,9, 10, W, None, None, ,   ,
12/07/2017 06:42, 23, 57, 10 ,9, 10, W, None, None, ,   ,
12/07/2017 06:34, 23, 58, 11 ,6, 9, W, None, None, ,   ,
12/07/2017 06:27, 22, 59, 10 ,6, 10, W, None, None, ,   ,
12/07/2017 06:24, 22, 58, 10 ,6, 10, W, None, None, ,   ,
12/07/2017 06:14, 24, 56, 10 ,10, 12, W, None, None, ,   ,
12/07/2017 06:12, 24, 55, 10 ,9, 12, W, None, None, ,   ,
12/07/2017 06:04, 24, 53, 10 ,11, 12, W, None, None, ,   ,
12/07/2017 05:57, 25, 53, 10 ,9, 12, W, None, None, ,   ,
12/07/2017 05:54, 25, 53, 10 ,9, 11, SW, None, None, ,   ,
12/07/2017 05:44, 25, 53, 10 ,9, 11, SW, None, None, ,   ,
12/07/2017 05:42, 25, 53, 10 ,9, 11, W, None, None, ,   ,
12/07/2017 05:34, 24, 53, 10 ,9, 12, W, None, None, ,   ,
12/07/2017 05:27, 25, 52, 10 ,10, 12, W, None, None, ,   ,
12/07/2017 05:24, 25, 51, 10 ,10, 12, W, None, None, ,   ,
12/07/2017 05:14, 26, 49, 10 ,10, 12, SW, None, None, ,   ,
12/07/2017 05:12, 26, 49, 10 ,11, 14, W, None, None, ,   ,
12/07/2017 05:04, 26, 48, 10 ,12, 15, SW, None, None, ,   ,
12/07/2017 04:56, 27, 48, 10 ,11, 15, SW, None, None, ,   ,
12/07/2017 04:54, 26, 49, 10 ,10, 12, SW, None, None, ,   ,
12/07/2017 04:44, 25, 51, 10 ,6, 9, W, None, None, ,   ,
12/07/2017 04:42, 25, 51, 10 ,6, 9, W, None, None, ,   ,
12/07/2017 04:34, 25, 51, 10 ,7, 12, W, None, None, ,   ,
12/07/2017 04:27, 25, 51, 10 ,9, 12, W, None, None, ,   ,
12/07/2017 04:24, 25, 52, 10 ,7, 11, W, None, None, ,   ,
12/07/2017 04:14, 24, 52, 10 ,9, 12, W, None, None, ,   ,
12/07/2017 04:12, 25, 52, 10 ,7, 13, NW, None, None, ,   ,
12/07/2017 04:04, 25, 52, 10 ,11, 14, W, None, None, ,   ,
12/07/2017 03:57, 26, 50, 10 ,11, 16, W, None, None, ,   ,
12/07/2017 03:54, 26, 50, 10 ,10, 15, W, None, None, ,   ,
12/07/2017 03:44, 25, 52, 10 ,11, 12, W, None, None, ,   ,
12/07/2017 03:41, 25, 52, 10 ,11, 12, W, None, None, ,   ,
12/07/2017 03:34, 25, 52, 10 ,11, 13, W, None, None, ,   ,
12/07/2017 03:27, 26, 49, 10 ,12, 14, W, None, None, ,   ,
12/07/2017 03:23, 26, 50, 10 ,11, 14, W, None, None, ,   ,
12/07/2017 03:13, 26, 52, 10 ,8, 12, W, None, None, ,   ,
12/07/2017 03:12, 26, 52, 10 ,9, 12, W, None, None, ,   ,
12/07/2017 03:03, 26, 51, 10 ,8, 12, W, None, None, ,   ,
12/07/2017 02:56, 26, 49, 10 ,9, 12, W, None, None, ,   ,
12/07/2017 02:53, 26, 49, 10 ,9, 12, W, None, None, ,   ,
12/07/2017 02:43, 26, 51, 10 ,7, 11, W, None, None, ,   ,
12/07/2017 02:42, 26, 51, 10 ,7, 11, W, None, None, ,   ,
12/07/2017 02:33, 26, 51, 10 ,9, 11, W, None, None, ,   ,
12/07/2017 02:27, 25, 52, 11 ,10, 11, W, None, None, ,   ,
12/07/2017 02:23, 25, 52, 10 ,9, 11, W, None, None, ,   ,
12/07/2017 02:13, 25, 52, 10 ,9, 11, W, None, None, ,   ,
12/07/2017 02:12, 25, 52, 10 ,9, 11, W, None, None, ,   ,
12/07/2017 02:03, 25, 51, 10 ,9, 11, W, None, None, ,   ,
12/07/2017 01:56, 26, 49, 10 ,9, 13, SW, None, None, ,   ,
12/07/2017 01:53, 26, 48, 10 ,9, 13, SW, None, None, ,   ,
12/07/2017 01:43, 26, 48, 10 ,9, 12, SW, None, None, ,   ,
12/07/2017 01:42, 26, 48, 10 ,9, 12, SW, None, None, ,   ,
12/07/2017 01:33, 26, 51, 10 ,9, 12, W, None, None, ,   ,
12/07/2017 01:26, 26, 51, 10 ,9, 13, W, None, None, ,   ,
12/07/2017 01:23, 26, 51, 10 ,9, 13, W, None, None, ,   ,
12/07/2017 01:13, 26, 52, 10 ,11, 15, W, None, None, ,   ,
12/07/2017 01:12, 26, 52, 10 ,11, 15, W, None, None, ,   ,
12/07/2017 01:03, 26, 51, 10 ,12, 16, W, None, None, ,   ,
12/07/2017 00:56, 26, 51, 10 ,13, 16, SW, None, None, ,   ,
12/07/2017 00:53, 26, 51, 10 ,12, 16, SW, None, None, ,   ,
12/07/2017 00:43, 26, 50, 10 ,12, 14, SW, None, None, ,   ,
12/07/2017 00:42, 26, 51, 10 ,12, 14, SW, None, None, ,   ,
12/07/2017 00:33, 26, 51, 10 ,12, 15, SW, None, None, ,   ,
12/07/2017 00:26, 25, 53, 11 ,12, 14, W, None, None, ,   ,
12/07/2017 00:23, 25, 53, 11 ,11, 14, SW, None, None, ,   ,
12/07/2017 00:13, 25, 54, 11 ,10, 12, SW, None, None, ,   ,
12/07/2017 00:12, 25, 55, 11 ,11, 12, SW, None, None, ,   ,
12/07/2017 00:03, 25, 53, 11 ,11, 13, W, None, None, ,   ,
12/06/2017 23:57, 25, 52, 10 ,11, 13, W, None, None, ,   ,
12/06/2017 23:53, 25, 52, 10 ,11, 12, W, None, None, ,   ,
12/06/2017 23:43, 26, 50, 10 ,10, 13, SW, None, None, ,   ,
12/06/2017 23:42, 26, 50, 10 ,10, 13, SW, None, None, ,   ,
12/06/2017 23:33, 26, 50, 10 ,11, 12, SW, None, None, ,   ,
12/06/2017 23:26, 26, 50, 10 ,11, 14, W, None, None, ,   ,
12/06/2017 23:23, 26, 50, 10 ,12, 14, SW, None, None, ,   ,
12/06/2017 23:13, 26, 50, 10 ,9, 12, W, None, None, ,   ,
12/06/2017 23:11, 26, 50, 10 ,9, 12, W, None, None, ,   ,
12/06/2017 23:02, 26, 52, 10 ,9, 12, SW, None, None, ,   ,
12/06/2017 22:57, 25, 54, 11 ,9, 12, W, None, None, ,   ,
12/06/2017 22:52, 25, 54, 11 ,10, 12, W, None, None, ,   ,
12/06/2017 22:42, 25, 57, 12 ,9, 12, W, None, None, ,   ,
12/06/2017 22:42, 25, 57, 12 ,9, 11, W, None, None, ,   ,
12/06/2017 22:32, 24, 59, 12 ,9, 11, W, None, None, ,   ,
12/06/2017 22:27, 24, 62, 13 ,8, 11, W, None, None, ,   ,
12/06/2017 22:22, 23, 63, 13 ,7, 11, W, None, None, ,   ,
12/06/2017 22:12, 24, 61, 13 ,7, 11, W, None, None, ,   ,
12/06/2017 22:12, 24, 61, 13 ,7, 11, W, None, None, ,   ,
12/06/2017 22:02, 24, 62, 13 ,9, 12, W, None, None, ,   ,
12/06/2017 21:56, 24, 62, 13 ,10, 11, W, None, None, ,   ,
12/06/2017 21:52, 24, 63, 13 ,9, 11, W, None, None, ,   ,
12/06/2017 21:42, 24, 63, 13 ,9, 11, W, None, None, ,   ,
12/06/2017 21:41, 24, 63, 13 ,9, 11, W, None, None, ,   ,
12/06/2017 21:32, 24, 62, 13 ,8, 10, W, None, None, ,   ,
12/06/2017 21:26, 24, 62, 13 ,7, 11, SW, None, None, ,   ,
12/06/2017 21:22, 23, 62, 12 ,9, 11, SW, None, None, ,   ,
12/06/2017 21:12, 23, 63, 12 ,9, 10, SW, None, None, ,   ,
12/06/2017 21:12, 23, 63, 12 ,9, 10, SW, None, None, ,   ,
12/06/2017 21:02, 24, 61, 12 ,10, 12, W, None, None, ,   ,
12/06/2017 20:56, 24, 60, 12 ,10, 12, W, None, None, ,   ,
12/06/2017 20:52, 24, 60, 12 ,9, 11, W, None, None, ,   ,
12/06/2017 20:42, 23, 62, 12 ,9, 12, SW, None, None, ,   ,
12/06/2017 20:42, 23, 62, 12 ,9, 12, SW, None, None, ,   ,
12/06/2017 20:32, 22, 63, 12 ,8, 10, W, None, None, ,   ,
12/06/2017 20:26, 22, 65, 12 ,8, 10, W, None, None, ,   ,
12/06/2017 20:22, 22, 66, 12 ,8, 10, W, None, None, ,   ,
12/06/2017 20:12, 22, 65, 12 ,9, 9, W, None, None, ,   ,
12/06/2017 20:12, 22, 65, 12 ,9, 9, W, None, None, ,   ,
12/06/2017 20:02, 21, 67, 12 ,7, 8, W, None, None, ,   ,
12/06/2017 19:56, 21, 67, 12 ,6, 7, W, None, None, ,   ,
12/06/2017 19:52, 21, 67, 12 ,6, 7, W, None, None, ,   ,
12/06/2017 19:42, 21, 64, 11 ,6, 6, W, None, None, ,   ,
12/06/2017 19:41, 21, 64, 11 ,6, 6, W, None, None, ,   ,
12/06/2017 19:32, 22, 62, 11 ,4, 5, W, None, None, ,   ,
12/06/2017 19:27, 22, 62, 11 ,3, 4, W, None, None, ,   ,
12/06/2017 19:22, 22, 62, 11 ,3, 4, W, None, None, ,   ,
12/06/2017 19:12, 22, 61, 11 ,3, 4, W, None, None, ,   ,
12/06/2017 19:11, 22, 61, 11 ,3, 4, W, None, None, ,   ,
12/06/2017 19:02, 22, 60, 10 ,4, 6, W, None, None, ,   ,
12/06/2017 18:57, 22, 59, 10 ,3, 6, W, None, None, ,   ,
12/06/2017 18:51, 22, 58, 10 ,4, 5, SW, None, None, ,   ,
12/06/2017 18:41, 22, 58, 10 ,4, 6, W, None, None, ,   ,
12/06/2017 18:41, 22, 58, 10 ,4, 6, W, None, None, ,   ,
Change End Date:

Copyright © 1998-2015 Vaisala, Inc.
All Rights Reserved
Send comments about the data to:
SCAN Web ® is a registered trademark of Vaisala, Inc.
SCAN Web Version 6.0